Year,Month,Day,Hour,Minute,Value (Times are PST for temperature in C)
2010,08,03,10,38,21.00
2010,08,03,10,39,21.00
2010,08,03,10,40,21.00
2010,08,03,10,41,21.10
2010,08,03,10,42,21.10
2010,08,03,10,43,21.20
2010,08,03,10,44,21.20
2010,08,03,10,45,21.20
2010,08,03,10,46,21.20
2010,08,03,10,47,21.10
2010,08,03,10,48,21.20
2010,08,03,10,49,21.20
2010,08,03,10,50,21.10
2010,08,03,10,51,21.10
2010,08,03,10,52,21.10
2010,08,03,10,53,21.10
2010,08,03,10,54,21.10
2010,08,03,10,55,21.20
2010,08,03,10,56,21.20
2010,08,03,10,57,21.30
2010,08,03,10,58,21.30
2010,08,03,10,59,21.40
2010,08,03,11,00,21.40
2010,08,03,11,01,21.50
2010,08,03,11,02,21.50
2010,08,03,11,03,21.50
2010,08,03,11,04,21.30
2010,08,03,11,05,21.20
2010,08,03,11,06,21.10
2010,08,03,11,07,21.10
2010,08,03,11,08,21.00
2010,08,03,11,09,21.00
2010,08,03,11,10,21.10
2010,08,03,11,11,21.00
2010,08,03,11,12,20.90
2010,08,03,11,13,20.90
2010,08,03,11,14,20.80
2010,08,03,11,15,20.80
2010,08,03,11,16,20.80
2010,08,03,11,17,20.90
2010,08,03,11,18,21.00
2010,08,03,11,19,21.10
2010,08,03,11,20,21.10
2010,08,03,11,21,21.10
2010,08,03,11,22,21.10
2010,08,03,11,23,21.20
2010,08,03,11,24,21.20
2010,08,03,11,25,21.30
2010,08,03,11,26,21.30
2010,08,03,11,27,21.30
2010,08,03,11,28,21.30
2010,08,03,11,29,21.30
2010,08,03,11,30,21.30
2010,08,03,11,31,21.40
2010,08,03,11,32,21.40
2010,08,03,11,33,21.30
2010,08,03,11,34,21.30
2010,08,03,11,35,21.30
2010,08,03,11,36,21.30
2010,08,03,11,37,21.40
2010,08,03,11,38,21.50
2010,08,03,11,39,21.50
2010,08,03,11,40,21.60
2010,08,03,11,41,21.60
2010,08,03,11,42,21.60
2010,08,03,11,43,21.60
2010,08,03,11,44,21.40
2010,08,03,11,45,21.40
2010,08,03,11,46,21.40
2010,08,03,11,47,21.40
2010,08,03,11,48,21.40
2010,08,03,11,49,21.40
2010,08,03,11,50,21.40
2010,08,03,11,51,21.30
2010,08,03,11,52,21.30
2010,08,03,11,53,21.30
2010,08,03,11,54,21.40
2010,08,03,11,55,21.50
2010,08,03,11,56,21.60
2010,08,03,11,57,21.70
2010,08,03,11,58,21.80
2010,08,03,11,59,21.90
2010,08,03,12,00,21.90
2010,08,03,12,01,22.00
2010,08,03,12,02,22.10
2010,08,03,12,03,21.90
2010,08,03,12,04,21.80
2010,08,03,12,05,21.80
2010,08,03,12,06,21.80
2010,08,03,12,07,21.80
2010,08,03,12,08,21.80
2010,08,03,12,09,21.80
2010,08,03,12,10,21.70
2010,08,03,12,11,21.60
2010,08,03,12,12,21.60
2010,08,03,12,13,21.60
2010,08,03,12,14,21.50
2010,08,03,12,15,21.60
2010,08,03,12,16,21.70
2010,08,03,12,17,21.60
2010,08,03,12,18,21.60
2010,08,03,12,19,21.60
2010,08,03,12,20,21.60
2010,08,03,12,21,21.70
2010,08,03,12,22,21.70
2010,08,03,12,23,21.80
2010,08,03,12,24,21.80
2010,08,03,12,25,21.90
2010,08,03,12,26,22.00
2010,08,03,12,27,22.10
2010,08,03,12,28,22.20
2010,08,03,12,29,22.20
2010,08,03,12,30,22.20
2010,08,03,12,31,22.20
2010,08,03,12,32,22.20
2010,08,03,12,33,22.20
2010,08,03,12,34,22.20
2010,08,03,12,35,22.30
2010,08,03,12,36,22.30
2010,08,03,12,37,22.30
2010,08,03,12,38,22.40
2010,08,03,12,39,22.50
2010,08,03,12,40,22.40
2010,08,03,12,41,22.40
2010,08,03,12,42,22.30
2010,08,03,12,43,22.30
2010,08,03,12,44,22.30
2010,08,03,12,45,22.40
2010,08,03,12,46,22.50
2010,08,03,12,47,22.60
2010,08,03,12,48,22.70
2010,08,03,12,49,22.70
2010,08,03,12,50,22.70
2010,08,03,12,51,22.70
2010,08,03,12,52,22.60
2010,08,03,12,53,22.60
2010,08,03,12,54,22.60
2010,08,03,12,55,22.60
2010,08,03,12,56,22.60
2010,08,03,12,57,22.70
2010,08,03,12,58,22.70
2010,08,03,12,59,22.80
2010,08,03,13,00,22.90
2010,08,03,13,01,23.00
2010,08,03,13,02,23.10
2010,08,03,13,03,23.00
2010,08,03,13,04,23.10
2010,08,03,13,05,23.10
2010,08,03,13,06,23.20
2010,08,03,13,07,23.30
2010,08,03,13,08,23.20
2010,08,03,13,09,23.20
2010,08,03,13,10,23.20
2010,08,03,13,11,23.10
2010,08,03,13,12,23.10
2010,08,03,13,13,23.10
2010,08,03,13,14,23.10
2010,08,03,13,15,23.20
2010,08,03,13,16,23.30
2010,08,03,13,17,23.40
2010,08,03,13,18,23.60
2010,08,03,13,19,23.70
2010,08,03,13,20,23.80
2010,08,03,13,21,23.90
2010,08,03,13,22,23.90
2010,08,03,13,23,23.80
2010,08,03,13,24,23.80
2010,08,03,13,25,23.70
2010,08,03,13,26,23.70
2010,08,03,13,27,23.70
2010,08,03,13,28,23.70
2010,08,03,13,29,23.70
2010,08,03,13,30,23.70
2010,08,03,13,31,23.80
2010,08,03,13,32,23.90
2010,08,03,13,33,24.00
2010,08,03,13,34,24.10
2010,08,03,13,35,24.20
2010,08,03,13,36,24.30
2010,08,03,13,37,24.30
2010,08,03,13,38,24.30
2010,08,03,13,39,24.10
2010,08,03,13,40,24.00
2010,08,03,13,41,23.90
2010,08,03,13,42,23.80
2010,08,03,13,43,23.70
2010,08,03,13,44,23.70
2010,08,03,13,45,23.70
2010,08,03,13,46,23.70
2010,08,03,13,47,23.60
2010,08,03,13,48,23.60
2010,08,03,13,49,23.70
2010,08,03,13,50,23.70
2010,08,03,13,51,23.70
2010,08,03,13,52,23.80
2010,08,03,13,53,24.00
2010,08,03,13,54,24.10
2010,08,03,13,55,24.20
2010,08,03,13,56,24.30
2010,08,03,13,57,24.20
2010,08,03,13,58,24.20
2010,08,03,13,59,24.10
2010,08,03,14,00,24.10
2010,08,03,14,01,24.10
2010,08,03,14,02,24.10
2010,08,03,14,03,24.00
2010,08,03,14,04,23.90
2010,08,03,14,05,23.90
2010,08,03,14,06,23.90
2010,08,03,14,07,23.90
2010,08,03,14,08,23.90
2010,08,03,14,09,24.00
2010,08,03,14,10,24.00
2010,08,03,14,11,24.10
2010,08,03,14,12,24.10
2010,08,03,14,13,24.20
2010,08,03,14,14,24.30
2010,08,03,14,15,24.40
2010,08,03,14,16,24.40
2010,08,03,14,17,24.40
2010,08,03,14,18,24.30
2010,08,03,14,19,24.30
2010,08,03,14,20,24.30
2010,08,03,14,21,24.30
2010,08,03,14,22,24.30
2010,08,03,14,23,24.30
2010,08,03,14,24,24.30
2010,08,03,14,25,24.40
2010,08,03,14,26,24.40
2010,08,03,14,27,24.50
2010,08,03,14,28,24.50
2010,08,03,14,29,24.60
2010,08,03,14,30,24.60
2010,08,03,14,31,24.60
2010,08,03,14,32,24.70
2010,08,03,14,33,24.80
2010,08,03,14,34,24.80
2010,08,03,14,35,24.90
2010,08,03,14,36,24.90
2010,08,03,14,37,24.90
2010,08,03,14,38,24.70
2010,08,03,14,39,24.60
2010,08,03,14,40,24.50
2010,08,03,14,41,24.50
2010,08,03,14,42,24.50
2010,08,03,14,43,24.50
2010,08,03,14,44,24.60
2010,08,03,14,45,24.70
2010,08,03,14,46,24.70
2010,08,03,14,47,24.80
2010,08,03,14,48,24.90
2010,08,03,14,49,25.00
2010,08,03,14,50,25.10
2010,08,03,14,51,25.20
2010,08,03,14,52,25.20
2010,08,03,14,53,25.20
2010,08,03,14,54,25.20
2010,08,03,14,55,25.20
2010,08,03,14,56,25.20
2010,08,03,14,57,25.20
2010,08,03,14,58,25.10
2010,08,03,14,59,25.10
2010,08,03,15,00,25.10
2010,08,03,15,01,25.10
2010,08,03,15,02,25.10
2010,08,03,15,03,25.00
2010,08,03,15,04,25.00
2010,08,03,15,05,24.90
2010,08,03,15,06,24.90
2010,08,03,15,07,24.90
2010,08,03,15,08,24.90
2010,08,03,15,09,24.80
2010,08,03,15,10,24.90
2010,08,03,15,11,24.80
2010,08,03,15,12,24.80
2010,08,03,15,13,24.80
2010,08,03,15,14,24.70
2010,08,03,15,15,24.70
2010,08,03,15,16,24.60
2010,08,03,15,17,24.60
2010,08,03,15,18,24.60
2010,08,03,15,19,24.60
2010,08,03,15,20,24.60
2010,08,03,15,21,24.40
2010,08,03,15,22,24.40
2010,08,03,15,23,24.40
2010,08,03,15,24,24.40
2010,08,03,15,25,24.40
2010,08,03,15,26,24.40
2010,08,03,15,27,24.50
2010,08,03,15,28,24.60
2010,08,03,15,29,24.70
2010,08,03,15,30,24.80
2010,08,03,15,31,24.80
2010,08,03,15,32,24.80
2010,08,03,15,33,24.80
2010,08,03,15,34,24.80
2010,08,03,15,35,24.80
2010,08,03,15,36,24.80
2010,08,03,15,37,24.80
2010,08,03,15,38,24.80
2010,08,03,15,39,24.80
2010,08,03,15,40,24.70
2010,08,03,15,41,24.60
2010,08,03,15,42,24.60
2010,08,03,15,43,24.60
2010,08,03,15,44,24.50
2010,08,03,15,45,24.40
2010,08,03,15,46,24.50
2010,08,03,15,47,24.50
2010,08,03,15,48,24.50
2010,08,03,15,49,24.60
2010,08,03,15,50,24.70
2010,08,03,15,51,24.80
2010,08,03,15,52,24.80
2010,08,03,15,53,24.80
2010,08,03,15,54,24.70
2010,08,03,15,55,24.60
2010,08,03,15,56,24.60
2010,08,03,15,57,24.50
2010,08,03,15,58,24.40
2010,08,03,15,59,24.40
2010,08,03,16,00,24.40
2010,08,03,16,01,24.30
2010,08,03,16,02,24.30
2010,08,03,16,03,24.20
2010,08,03,16,04,24.20
2010,08,03,16,05,24.20
2010,08,03,16,06,24.20
2010,08,03,16,07,24.20
2010,08,03,16,08,24.20
2010,08,03,16,09,24.20
2010,08,03,16,10,24.30
2010,08,03,16,11,24.30
2010,08,03,16,12,24.30
2010,08,03,16,13,24.40
2010,08,03,16,14,24.40
2010,08,03,16,15,24.40
2010,08,03,16,16,24.40
2010,08,03,16,17,24.50
2010,08,03,16,18,24.50
2010,08,03,16,19,24.50
2010,08,03,16,20,24.50
2010,08,03,16,21,24.50
2010,08,03,16,22,24.40
2010,08,03,16,23,24.40
2010,08,03,16,24,24.40
2010,08,03,16,25,24.30
2010,08,03,16,26,24.30
2010,08,03,16,27,24.30
2010,08,03,16,28,24.30
2010,08,03,16,29,24.30
2010,08,03,16,30,24.30
2010,08,03,16,31,24.30
2010,08,03,16,32,24.20
2010,08,03,16,33,24.20
2010,08,03,16,34,24.20
2010,08,03,16,35,24.30
2010,08,03,16,36,24.20
2010,08,03,16,37,24.20
2010,08,03,16,38,24.20
2010,08,03,16,39,24.20
2010,08,03,16,40,24.20
2010,08,03,16,41,24.20
2010,08,03,16,42,24.10
2010,08,03,16,43,24.10
2010,08,03,16,44,24.00
2010,08,03,16,45,24.00
2010,08,03,16,46,24.00
2010,08,03,16,47,23.90
2010,08,03,16,48,23.80
2010,08,03,16,49,23.90
2010,08,03,16,50,23.90
2010,08,03,16,51,23.90
2010,08,03,16,52,23.80
2010,08,03,16,53,23.80
2010,08,03,16,54,23.80
2010,08,03,16,55,23.90
2010,08,03,16,56,23.90
2010,08,03,16,57,23.90
2010,08,03,16,58,23.90
2010,08,03,16,59,23.90
2010,08,03,17,00,23.90
2010,08,03,17,01,23.90
2010,08,03,17,02,23.90
2010,08,03,17,03,23.90
2010,08,03,17,04,23.90
2010,08,03,17,05,24.00
2010,08,03,17,06,24.10
2010,08,03,17,07,24.00
2010,08,03,17,08,24.00
2010,08,03,17,09,23.90
2010,08,03,17,10,23.80
2010,08,03,17,11,23.80
2010,08,03,17,12,23.70
2010,08,03,17,13,23.60
2010,08,03,17,14,23.60
2010,08,03,17,15,23.60
2010,08,03,17,16,23.60
2010,08,03,17,17,23.50
2010,08,03,17,18,23.50
2010,08,03,17,19,23.50
2010,08,03,17,20,23.50
2010,08,03,17,21,23.50
2010,08,03,17,22,23.50
2010,08,03,17,23,23.40
2010,08,03,17,24,23.30
2010,08,03,17,25,23.30
2010,08,03,17,26,23.30
2010,08,03,17,27,23.30
2010,08,03,17,28,23.30
2010,08,03,17,29,23.30
2010,08,03,17,30,23.20
2010,08,03,17,31,23.10
2010,08,03,17,32,23.10
2010,08,03,17,33,23.00
2010,08,03,17,34,23.00
2010,08,03,17,35,22.90
2010,08,03,17,36,22.90
2010,08,03,17,37,22.80
2010,08,03,17,38,22.70
2010,08,03,17,39,22.60
2010,08,03,17,40,22.60
2010,08,03,17,41,22.50
2010,08,03,17,42,22.50
2010,08,03,17,43,22.40
2010,08,03,17,44,22.40
2010,08,03,17,45,22.50
2010,08,03,17,46,22.50
2010,08,03,17,47,22.60
2010,08,03,17,48,22.60
2010,08,03,17,49,22.70
2010,08,03,17,50,22.70
2010,08,03,17,51,22.80
2010,08,03,17,52,22.90
2010,08,03,17,53,22.90
2010,08,03,17,54,22.90
2010,08,03,17,55,22.90
2010,08,03,17,56,22.80
2010,08,03,17,57,22.80
2010,08,03,17,58,22.70
2010,08,03,17,59,22.60
2010,08,03,18,00,22.60
2010,08,03,18,01,22.60
2010,08,03,18,02,22.60
2010,08,03,18,03,22.50
2010,08,03,18,04,22.50
2010,08,03,18,05,22.50
2010,08,03,18,06,22.50
2010,08,03,18,07,22.60
2010,08,03,18,08,22.60
2010,08,03,18,09,22.70
2010,08,03,18,10,22.80
2010,08,03,18,11,22.90
2010,08,03,18,12,23.00
2010,08,03,18,13,23.10
2010,08,03,18,14,23.10
2010,08,03,18,15,23.20
2010,08,03,18,16,23.20
2010,08,03,18,17,23.20
2010,08,03,18,18,23.20
2010,08,03,18,19,23.30
2010,08,03,18,20,23.30
2010,08,03,18,21,23.30
2010,08,03,18,22,23.30
2010,08,03,18,23,23.20
2010,08,03,18,24,23.20
2010,08,03,18,25,23.20
2010,08,03,18,26,23.20
2010,08,03,18,27,23.20
2010,08,03,18,28,23.20
2010,08,03,18,29,23.20
2010,08,03,18,30,23.20
2010,08,03,18,31,23.30
2010,08,03,18,32,23.30
2010,08,03,18,33,23.30
2010,08,03,18,34,23.40
2010,08,03,18,35,23.50
2010,08,03,18,36,23.50
2010,08,03,18,37,23.60
2010,08,03,18,38,23.50
2010,08,03,18,39,23.40
2010,08,03,18,40,23.40
2010,08,03,18,41,23.30
2010,08,03,18,42,23.30
2010,08,03,18,43,23.30
2010,08,03,18,44,23.30
2010,08,03,18,45,23.40
2010,08,03,18,46,23.40
2010,08,03,18,47,23.40
2010,08,03,18,48,23.40
2010,08,03,18,49,23.40
2010,08,03,18,50,23.40
2010,08,03,18,51,23.40
2010,08,03,18,52,23.40
2010,08,03,18,53,23.40
2010,08,03,18,54,23.40
2010,08,03,18,55,23.40
2010,08,03,18,56,23.50
2010,08,03,18,57,23.50
2010,08,03,18,58,23.40
2010,08,03,18,59,23.40
2010,08,03,19,00,23.40
2010,08,03,19,01,23.30
2010,08,03,19,02,23.30
2010,08,03,19,03,23.30
2010,08,03,19,04,23.30
2010,08,03,19,05,23.40
2010,08,03,19,06,23.40
2010,08,03,19,07,23.20
2010,08,03,19,08,23.10
2010,08,03,19,09,23.00
2010,08,03,19,10,22.90
2010,08,03,19,11,22.90
2010,08,03,19,12,22.80
2010,08,03,19,13,22.80
2010,08,03,19,14,22.80
2010,08,03,19,15,22.80
2010,08,03,19,16,22.80
2010,08,03,19,17,22.80
2010,08,03,19,18,22.80
2010,08,03,19,19,22.70
2010,08,03,19,20,22.70
2010,08,03,19,21,22.70
2010,08,03,19,22,22.60
2010,08,03,19,23,22.40
2010,08,03,19,24,22.20
2010,08,03,19,25,22.10
2010,08,03,19,26,22.10
2010,08,03,19,27,22.10
2010,08,03,19,28,22.10
2010,08,03,19,29,22.10
2010,08,03,19,30,22.10
2010,08,03,19,31,22.10
2010,08,03,19,32,22.10
2010,08,03,19,33,22.10
2010,08,03,19,34,22.10
